Photometre #394[NE_1.6] Lille AOT

File : 20221126_394.hum

26/11/2022,08:33:36,TEMP=5.4,BA=5.64,STAT.A=11.0,ExtBa=13.01
26/11/2022,08:35:24,TEMP=5.8,BA=5.64,STAT.F,ExtBa=12.96
26/11/2022,08:50:00,TEMP=5.7,BA=5.64,STAT.D=11.0,ExtBa=13.02
26/11/2022,09:05:00,TEMP=5.8,BA=5.64,STAT.D=11.0,ExtBa=13.02
26/11/2022,09:20:00,TEMP=6.1,BA=5.64,STAT.D=11.0,ExtBa=13.02
26/11/2022,09:35:02,TEMP=6.6,BA=5.64,STAT.F,ExtBa=12.98
26/11/2022,09:50:00,TEMP=7.1,BA=5.60,STAT.D=11.0,ExtBa=12.76
26/11/2022,10:05:00,TEMP=7.6,BA=5.64,STAT.D=11.0,ExtBa=13.04
26/11/2022,10:20:00,TEMP=8.4,BA=5.64,STAT.D=11.0,ExtBa=13.13
26/11/2022,10:35:02,TEMP=9.1,BA=5.64,STAT.F,ExtBa=13.13
26/11/2022,10:50:00,TEMP=9.6,BA=5.60,STAT.D=11.0,ExtBa=12.71
26/11/2022,11:05:00,TEMP=10.2,BA=5.64,STAT.D=11.5,ExtBa=13.04
26/11/2022,11:20:00,TEMP=11.3,BA=5.64,STAT.D=11.5,ExtBa=13.11
26/11/2022,11:35:02,TEMP=12.1,BA=5.64,STAT.F,ExtBa=13.13
26/11/2022,11:50:00,TEMP=12.4,BA=5.60,STAT.D=11.5,ExtBa=12.71
26/11/2022,12:05:00,TEMP=12.9,BA=5.64,STAT.D=11.5,ExtBa=13.01
26/11/2022,12:20:00,TEMP=13.0,BA=5.64,STAT.D=11.5,ExtBa=13.10
26/11/2022,12:35:02,TEMP=12.3,BA=5.64,STAT.F,ExtBa=13.12
26/11/2022,12:50:00,TEMP=11.6,BA=5.60,STAT.D=11.5,ExtBa=12.68
26/11/2022,13:05:00,TEMP=10.9,BA=5.64,STAT.D=11.5,ExtBa=13.01
26/11/2022,13:20:00,TEMP=10.5,BA=5.64,STAT.D=11.5,ExtBa=13.12
26/11/2022,13:35:02,TEMP=10.2,BA=5.64,STAT.F,ExtBa=13.13
26/11/2022,13:50:00,TEMP=10.4,BA=5.60,STAT.D=11.0,ExtBa=12.67
26/11/2022,14:05:00,TEMP=10.0,BA=5.64,STAT.D=11.5,ExtBa=13.01
26/11/2022,14:20:00,TEMP=9.5,BA=5.64,STAT.D=11.5,ExtBa=13.11
26/11/2022,14:35:01,TEMP=9.0,BA=5.64,STAT.F,ExtBa=13.12
26/11/2022,14:36:49,TEMP=9.2,BA=5.64,STAT.A=11.0,ExtBa=13.09